Location: Newark
(47.8167°N, 6.1833°E)
Time: 20:14:18
(UTC+00:00)

N. Korean satellite - Pass Details

Date: 27 September 2020
Orbit: 452 x 505 km, 97.2° (Epoch: 28 October)

Event Time Altitude Azimuth Distance (km) Brightness Sun altitude
Rises 04:25:16 0° 24° (NNE) 2,594 10.8 -11.5°
Reaches altitude 10° 04:27:43 10° 40° (NE) 1,696 10.1 -11.1°
Maximum altitude 04:30:38 22° 93° (E) 1,101 9.4 -10.6°
Drops below altitude 10° 04:33:30 10° 147° (SSE) 1,659 9.6 -10.2°
Sets 04:35:51 0° 163° (SSE) 2,522 10.3 -9.8°
